Wink, TX

5:03 PM CDT on June 25, 2017 (GMT -0500)
Winkler County

Weather History for KINK - March, 2014

Change the Weather History Date:

Thursday, March 20, 2014

  Actual Average Record
Temperature  
Mean Temperature 56 °F -  
Max Temperature 81 °F 72 °F 93 °F (2017)
Min Temperature 33 °F 39 °F 16 °F (1965)
Degree Days  
Heating Degree Days 8    
Growing Degree Days 6 (Base 50)    
Moisture  
Dew Point 15 °F    
Average Humidity 23    
Maximum Humidity 42    
Minimum Humidity 7    
Precipitation  
Precipitation 0.00 in - - ()
Sea Level Pressure  
Sea Level Pressure 30.02 in    
Wind  
Wind Speed 7 mph (SE)    
Max Wind Speed 15 mph    
Max Gust Speed 22 mph    
Visibility 10 miles    
Events      
Averages and records for this station are not official NWS values.
T = Trace of Precipitation, MM = Missing Value Source: NWS Daily Summary

Daily Weather History Graph

Daily Weather History Graph

Search for Another Location

Airport or City:

Trip Planner

Search our weather history database for the weather conditions in past years. The results will help you decide how hot, cold, wet, or windy it might be!

Date:

Astronomy

Mar. 20, 2014 Rise Set
Actual Time 7:56 AM CDT 8:04 PM CDT
Civil Twilight 7:32 AM CDT 8:28 PM CDT
Nautical Twilight 7:03 AM CDT 8:57 PM CDT
Astronomical Twilight 6:35 AM CDT 9:25 PM CDT
Moon No Moon Rise 10:18 AM CDT (3/20)
Length of Visible Light 12h 56m
Length of Day
12h 07m
Waning Gibbous, 84% of the Moon is Illuminated
Mar 20
Waning Gibbous
Mar 23
Last Quarter
Mar 30
New
Apr 7
First Quarter
Apr 15
Full

Hourly Weather History & Observations

Time (CDT) Temp. Windchill Dew Point Humidity Pressure Visibility Wind Dir Wind Speed Gust Speed Precip Events Conditions
12:53 AM 45.0 °F 41.8 °F 14.0 °F 29% 30.17 in 10.0 mi ESE 5.8 mph - N/A   Clear
1:53 AM 43.0 °F 40.3 °F 16.0 °F 34% 30.14 in 10.0 mi East 4.6 mph - N/A   Clear
2:53 AM 41.0 °F 39.0 °F 14.0 °F 33% 30.15 in 10.0 mi East 3.5 mph - N/A   Clear
3:53 AM 36.0 °F 33.3 °F 10.9 °F 36% 30.14 in 10.0 mi NNE 3.5 mph - N/A   Clear
4:53 AM 35.1 °F 30.1 °F 10.9 °F 37% 30.14 in 10.0 mi North 5.8 mph - N/A   Clear
5:53 AM 33.1 °F 27.7 °F 10.0 °F 38% 30.14 in 10.0 mi NNE 5.8 mph - N/A   Clear
6:53 AM 33.1 °F 28.7 °F 10.9 °F 40% 30.13 in 10.0 mi North 4.6 mph - N/A   Clear
7:53 AM 33.1 °F 28.7 °F 12.0 °F 42% 30.14 in 10.0 mi North 4.6 mph - N/A   Clear
8:53 AM 37.0 °F 33.3 °F 12.9 °F 37% 30.16 in 10.0 mi NE 4.6 mph - N/A   Clear
9:53 AM 48.9 °F - 19.0 °F 31% 30.14 in 10.0 mi SE 9.2 mph - N/A   Clear
10:53 AM 57.0 °F - 19.9 °F 24% 30.12 in 10.0 mi SSE 8.1 mph - N/A   Clear
11:53 AM 62.1 °F - 19.9 °F 20% 30.10 in 10.0 mi SSE 9.2 mph - N/A   Clear
12:53 PM 66.9 °F - 19.9 °F 17% 30.07 in 10.0 mi SSE 6.9 mph - N/A   Clear
1:53 PM 73.0 °F - 19.0 °F 13% 30.03 in 10.0 mi South 11.5 mph 21.9 mph N/A   Clear
2:53 PM 75.9 °F - 10.9 °F 8% 29.98 in 10.0 mi South 12.7 mph - N/A   Clear
3:53 PM 78.1 °F - 14.0 °F 9% 29.94 in 10.0 mi South 11.5 mph - N/A   Clear
4:53 PM 78.1 °F - 14.0 °F 9% 29.91 in 10.0 mi SE 4.6 mph 18.4 mph N/A   Clear
5:53 PM 80.1 °F - 12.9 °F 8% 29.87 in 10.0 mi SSE 10.4 mph - N/A   Clear
6:53 PM 79.0 °F - 10.0 °F 7% 29.86 in 10.0 mi SSE 10.4 mph - N/A   Clear
7:53 PM 75.9 °F - 15.1 °F 10% 29.86 in 10.0 mi SE 13.8 mph - N/A   Clear
8:53 PM 71.1 °F - 16.0 °F 12% 29.86 in 10.0 mi SE 15.0 mph - N/A   Clear
9:53 PM 66.9 °F - 19.0 °F 16% 29.85 in 10.0 mi SE 12.7 mph - N/A   Clear
10:53 PM 64.0 °F - 19.9 °F 18% 29.84 in 10.0 mi SE 12.7 mph - N/A   Clear
11:53 PM 64.0 °F - 25.0 °F 23% 29.83 in 10.0 mi SSE 15.0 mph - N/A   Clear